Вернуться в каталог

FENGYUN 1C DEB

АктивенLEO
NORAD 37900·DEBRIS·🇨🇳 China

Запущен May 10, 1999 с Taiyuan Satellite Launch Center

Loading…

Ближайшие Пролёты (ближайшие 24 часа)

TLE

СвежийSource: Space-Track

Эпоха: Sep 13, 2026, 06:58 UTC

1 37900U 99025EMZ 26256.29069914  .00002076  00000-0  10983-2 0  9993
2 37900 102.3080  73.9683 0207785 279.3017  78.4696 14.05074072636688

Отслеживайте FENGYUN 1C DEB в реальном времени с AllMySat

Download on the App Store